Overview Statistics Trail Chart Weather Telemetry Raw packets
 

This is the latest recevied weather packets stored in our database for station/object K7FLA. If no packets are shown the sender has not sent any weather packets the latest 10 day(s).

<< 64 65 66 67 68 69 70 >>
Time Temp. Humidity Pressure Rain* Wind** Luminosity Snow
1788218798 31.67° C 29% 1094.1 hPa 0 mm - 316 W/m² -
1788218494 31.67° C 29% 1094.3 hPa 0 mm - 324 W/m² -
1788218190 31.67° C 29% 1094.3 hPa 0 mm - 336 W/m² -
1788217886 31.67° C 30% 1094.3 hPa 0 mm - 363 W/m² -
1788217582 31.67° C 29% 1094.2 hPa 0 mm - 378 W/m² -
1788217281 31.67° C 29% 1094.1 hPa 0 mm - 390 W/m² -
1788216971 32.22° C 29% 1094.1 hPa 0 mm - 407 W/m² -
1788216671 32.22° C 28% 1094.1 hPa 0 mm - 421 W/m² -
1788216366 32.22° C 28% 1094.5 hPa 0 mm - 430 W/m² -
1788216061 32.22° C 28% 1094.3 hPa 0 mm - 459 W/m² -
1788215756 32.22° C 27% 1094.3 hPa 0 mm - 467 W/m² -
1788215452 32.78° C 27% 1094.5 hPa 0 mm - 486 W/m² -
1788215148 32.78° C 27% 1094.6 hPa 0 mm - 505 W/m² -
1788214848 32.78° C 27% 1094.5 hPa 0 mm - 520 W/m² -
1788214539 32.78° C 26% 1094.6 hPa 0 mm - 528 W/m² -
1788214239 32.78° C 26% 1094.7 hPa 0 mm - 546 W/m² -
1788213934 32.78° C 25% 1094.6 hPa 0 mm - 565 W/m² -
1788213630 32.78° C 25% 1094.7 hPa 0 mm - 572 W/m² -
1788213325 33.33° C 24% 1094.8 hPa 0 mm - 584 W/m² -
1788213021 33.33° C 25% 1094.9 hPa 0 mm - 601 W/m² -
1788212718 33.33° C 25% 1094.9 hPa 0 mm - 611 W/m² -
1788212414 33.33° C 24% 1094.9 hPa 0 mm - 629 W/m² -
1788212110 33.33° C 23% 1094.9 hPa 0 mm - 630 W/m² -
1788211805 33.33° C 23% 1095.2 hPa 0 mm - 640 W/m² -
1788211501 33.33° C 22% 1095.3 hPa 0 mm - 658 W/m² -

* Rain latest hour (hover to see other rain measurements)
** Current wind speed in m/s (hover to see current wind gust speed)